• En España
  • Lista de países
  • Para 7 días
  • Temperatura del agua
  • Mapa Satelital
  • El tiempo en el mapa
  • Informadores
  • user-avatar
    Iniciar sesión

    Tiempo cada hora Artashat

    Hoy, 16 Octubre, Martes

    Tiempo Temperatura Precipitaciones Viento Presión Humedad
    00:00 +10°C° 0 mm 1 mps 606 mmHg 56%
    01:00 +9°C° 0 mm 1 mps 605 mmHg 59%
    02:00 +9°C° 0 mm 1 mps 605 mmHg 61%
    03:00 +8°C° 0 mm 1 mps 605 mmHg 64%
    04:00 +8°C° 0 mm 1 mps 605 mmHg 66%
    05:00 +8°C° 0 mm 1 mps 605 mmHg 67%
    06:00 +7°C° 0 mm 1 mps 605 mmHg 68%
    07:00 +9°C° 0 mm 1 mps 606 mmHg 61%
    08:00 +11°C° 0 mm 1 mps 607 mmHg 54%
    09:00 +13°C° 0 mm 1 mps 608 mmHg 47%
    10:00 +14°C° 0 mm 1 mps 608 mmHg 44%
    11:00 +15°C° 0 mm 1 mps 608 mmHg 40%
    12:00 +16°C° 0 mm 2 mps 609 mmHg 36%
    13:00 +16°C° 0 mm 2 mps 608 mmHg 35%
    14:00 +17°C° 0 mm 2 mps 608 mmHg 34%
    15:00 +17°C° 0 mm 2 mps 608 mmHg 33%
    16:00 +15°C° 0 mm 2 mps 608 mmHg 37%
    17:00 +14°C° 0 mm 1 mps 607 mmHg 41%
    18:00 +12°C° 0 mm 1 mps 606 mmHg 45%
    19:00 +11°C° 0 mm 1 mps 606 mmHg 48%
    20:00 +11°C° 0 mm 1 mps 606 mmHg 50%
    21:00 +10°C° 0 mm 1 mps 606 mmHg 53%
    22:00 +10°C° 0 mm 1 mps 606 mmHg 55%
    23:00 +9°C° 0 mm 1 mps 606 mmHg 57%

    Mañana, 17 Octubre, Miércoles

    Tiempo Temperatura Precipitaciones Viento Presión Humedad
    00:00 +8°C° 0 mm 1 mps 606 mmHg 59%
    01:00 +8°C° 0 mm 1 mps 606 mmHg 62%
    02:00 +8°C° 0 mm 1 mps 606 mmHg 64%
    03:00 +7°C° 0 mm 1 mps 605 mmHg 66%
    04:00 +7°C° 0 mm 1 mps 605 mmHg 68%
    05:00 +6°C° 0 mm 1 mps 605 mmHg 70%
    06:00 +6°C° 0 mm 1 mps 605 mmHg 73%
    07:00 +8°C° 0 mm 1 mps 606 mmHg 65%
    08:00 +10°C° 0 mm 1 mps 606 mmHg 58%
    09:00 +11°C° 0 mm 1 mps 607 mmHg 51%
    10:00 +12°C° 0 mm 1 mps 607 mmHg 47%
    11:00 +13°C° 0 mm 2 mps 607 mmHg 44%
    12:00 +14°C° 0 mm 2 mps 608 mmHg 40%
    13:00 +15°C° 0 mm 2 mps 607 mmHg 39%
    14:00 +15°C° 0 mm 2 mps 607 mmHg 38%
    15:00 +16°C° 0 mm 2 mps 607 mmHg 37%
    16:00 +14°C° 0 mm 2 mps 606 mmHg 42%
    17:00 +13°C° 0 mm 1 mps 606 mmHg 46%
    18:00 +11°C° 0 mm 1 mps 605 mmHg 51%
    19:00 +10°C° 0 mm 1 mps 605 mmHg 53%
    20:00 +10°C° 0 mm 1 mps 605 mmHg 56%
    21:00 +8°C° 0 mm 0 mps 605 mmHg 59%
    22:00 +8°C° 0 mm 0 mps 605 mmHg 61%
    23:00 +7°C° 0 mm 0 mps 605 mmHg 64%

    Pasado mañana, 18 Octubre, Jueves

    Tiempo Temperatura Precipitaciones Viento Presión Humedad
    00:00 +7°C° 0 mm 0 mps 604 mmHg 66%
    01:00 +6°C° 0 mm 0 mps 604 mmHg 67%
    02:00 +6°C° 0 mm 0 mps 604 mmHg 69%
    03:00 +5°C° 0 mm 0 mps 603 mmHg 70%
    04:00 +5°C° 0 mm 0 mps 603 mmHg 71%
    05:00 +5°C° 0 mm 0 mps 603 mmHg 72%
    06:00 +4°C° 0 mm 0 mps 603 mmHg 72%
    07:00 +7°C° 0 mm 0 mps 604 mmHg 63%
    08:00 +9°C° 0 mm 0 mps 605 mmHg 54%
    09:00 +11°C° 0 mm 0 mps 606 mmHg 44%
    10:00 +14°C° 0 mm 1 mps 606 mmHg 40%
    11:00 +15°C° 0 mm 1 mps 606 mmHg 37%
    12:00 +16°C° 0 mm 1 mps 607 mmHg 33%
    13:00 +16°C° 0 mm 1 mps 606 mmHg 32%
    14:00 +17°C° 0 mm 2 mps 606 mmHg 30%
    15:00 +17°C° 0 mm 2 mps 606 mmHg 29%
    16:00 +15°C° 0 mm 1 mps 606 mmHg 33%
    17:00 +14°C° 0 mm 1 mps 605 mmHg 38%
    18:00 +12°C° 0 mm 1 mps 604 mmHg 42%
    19:00 +11°C° 0 mm 1 mps 604 mmHg 45%
    20:00 +11°C° 0 mm 1 mps 604 mmHg 47%
    21:00 +10°C° 0 mm 1 mps 604 mmHg 49%
    22:00 +10°C° 0 mm 1 mps 604 mmHg 51%
    23:00 +9°C° 0 mm 1 mps 604 mmHg 53%

    19 Octubre, Viernes

    Tiempo Temperatura Precipitaciones Viento Presión Humedad
    00:00 +9°C° 0 mm 1 mps 604 mmHg 54%
    01:00 +8°C° 0 mm 1 mps 604 mmHg 56%
    02:00 +7°C° 0 mm 0 mps 604 mmHg 57%
    03:00 +6°C° 0 mm 0 mps 604 mmHg 58%
    04:00 +6°C° 0 mm 0 mps 603 mmHg 59%
    05:00 +6°C° 0 mm 0 mps 603 mmHg 60%
    06:00 +5°C° 0 mm 0 mps 603 mmHg 60%
    07:00 +9°C° 0 mm 1 mps 604 mmHg 52%
    08:00 +11°C° 0 mm 1 mps 606 mmHg 44%
    09:00 +14°C° 0 mm 1 mps 607 mmHg 36%
    10:00 +15°C° 0 mm 1 mps 607 mmHg 34%
    11:00 +16°C° 0 mm 1 mps 607 mmHg 31%
    12:00 +17°C° 0 mm 2 mps 607 mmHg 28%
    13:00 +17°C° 0 mm 2 mps 607 mmHg 28%
    14:00 +17°C° 0 mm 2 mps 607 mmHg 27%
    15:00 +18°C° 0 mm 2 mps 606 mmHg 27%
    16:00 +16°C° 0 mm 2 mps 606 mmHg 31%
    17:00 +14°C° 0 mm 1 mps 605 mmHg 35%
    18:00 +13°C° 0 mm 1 mps 605 mmHg 39%
    19:00 +12°C° 0 mm 1 mps 605 mmHg 40%
    20:00 +12°C° 0 mm 1 mps 605 mmHg 42%
    21:00 +11°C° 0 mm 1 mps 605 mmHg 43%
    22:00 +11°C° 0 mm 1 mps 605 mmHg 44%
    23:00 +10°C° 0 mm 1 mps 605 mmHg 45%

    20 Octubre, Sábado

    Tiempo Temperatura Precipitaciones Viento Presión Humedad
    00:00 +10°C° 0 mm 1 mps 604 mmHg 46%
    01:00 +9°C° 0 mm 1 mps 604 mmHg 48%
    02:00 +8°C° 0 mm 0 mps 604 mmHg 49%
    03:00 +8°C° 0 mm 0 mps 604 mmHg 51%
    04:00 +7°C° 0 mm 0 mps 603 mmHg 52%
    05:00 +8°C° 0 mm 1 mps 603 mmHg 53%
    06:00 +8°C° 0 mm 1 mps 603 mmHg 54%
    07:00 +10°C° 0 mm 1 mps 604 mmHg 48%
    08:00 +12°C° 0 mm 1 mps 605 mmHg 42%
    09:00 +14°C° 0 mm 1 mps 606 mmHg 35%
    10:00 +15°C° 0 mm 1 mps 606 mmHg 33%
    11:00 +16°C° 0 mm 2 mps 606 mmHg 30%
    12:00 +17°C° 0 mm 2 mps 606 mmHg 28%
    13:00 +17°C° 0 mm 2 mps 606 mmHg 28%
    14:00 +17°C° 0 mm 2 mps 605 mmHg 28%
    15:00 +18°C° 0 mm 2 mps 605 mmHg 27%
    16:00 +16°C° 0 mm 2 mps 605 mmHg 31%
    17:00 +15°C° 0 mm 2 mps 605 mmHg 34%
    18:00 +14°C° 0 mm 1 mps 604 mmHg 38%
    19:00 +13°C° 0 mm 1 mps 604 mmHg 40%
    20:00 +13°C° 0 mm 1 mps 604 mmHg 42%
    21:00 +12°C° 0 mm 1 mps 604 mmHg 45%
    22:00 +11°C° 0 mm 1 mps 603 mmHg 46%
    23:00 +11°C° 0 mm 1 mps 603 mmHg 48%

    21 Octubre, Domingo

    Tiempo Temperatura Precipitaciones Viento Presión Humedad
    00:00 +11°C° 0 mm 1 mps 603 mmHg 50%
    01:00 +10°C° 0 mm 1 mps 602 mmHg 51%
    02:00 +10°C° 0 mm 1 mps 602 mmHg 53%
    03:00 +9°C° 0 mm 1 mps 602 mmHg 54%
    04:00 +9°C° 0 mm 1 mps 602 mmHg 55%
    05:00 +9°C° 0 mm 1 mps 602 mmHg 56%
    06:00 +9°C° 0 mm 1 mps 602 mmHg 57%
    07:00 +10°C° 0 mm 1 mps 602 mmHg 52%
    08:00 +12°C° 0 mm 1 mps 603 mmHg 46%
    09:00 +14°C° 0 mm 1 mps 604 mmHg 41%
    10:00 +15°C° 0 mm 2 mps 604 mmHg 39%
    11:00 +16°C° 0 mm 2 mps 604 mmHg 36%
    12:00 +17°C° 0 mm 3 mps 604 mmHg 33%
    13:00 +17°C° 0 mm 3 mps 604 mmHg 33%
    14:00 +17°C° 0 mm 3 mps 604 mmHg 33%
    15:00 +17°C° 0 mm 3 mps 603 mmHg 33%
    16:00 +15°C° 0 mm 2 mps 603 mmHg 38%
    17:00 +14°C° 0 mm 2 mps 603 mmHg 43%
    18:00 +13°C° 0 mm 2 mps 602 mmHg 47%
    19:00 +12°C° 0 mm 1 mps 602 mmHg 51%
    20:00 +11°C° 0 mm 1 mps 602 mmHg 54%
    21:00 +10°C° 0 mm 1 mps 602 mmHg 57%
    22:00 +10°C° 0 mm 1 mps 602 mmHg 58%
    23:00 +10°C° 0 mm 1 mps 602 mmHg 58%
    Mostrar más